Regional Weather Roundup
Issued by NWS

Home | Current Version | Previous Version | Text Only | Print | Product List | Glossary On
Versions: 1 2 3 4 5 6 7 8 9 10 11 12 13 14 15 16 17 18 19 20 21 22 23 24 25 26 27 28 29 30 31 32 33 34 35 36 37 38 39 40 41 42 43 44 45 46 47 48 49 50
000
ASUS43 KFSD 251010
RWRSD

WEATHER ROUNDUP FOR SOUTH DAKOTA
NATIONAL WEATHER SERVICE SIOUX FALLS SD
500 AM CDT THU AUG 25 2016

NOTE: "FAIR" INDICATES FEW OR NO CLOUDS BELOW 12,000 FEET WITH NO
SIGNIFICANT WEATHER AND/OR OBSTRUCTIONS TO VISIBILITY.


SDZ001>005-009-010-012>017-251100-
NORTHWEST AND NORTH CENTRAL SOUTH DAKOTA

CITY           SKY/WX    TMP DP  RH WIND       PRES   REMARKS
BUFFALO          N/A     46  42  86 W6        30.17R
FAITH            N/A     49  45  86 NW10      30.20S
MOBRIDGE       PTCLDY    56  47  71 W13       30.12S
$$

SDZ012>016-024>037-041>051-057-063-072>074-251100-
SOUTHWEST AND SOUTH CENTRAL SOUTH DAKOTA

CITY           SKY/WX    TMP DP  RH WIND       PRES   REMARKS
RAPID CTY ARPT CLOUDY    55  41  59 NW14      30.23S
PIERRE         CLEAR     56  47  71 NW10      30.16R
CUSTER         CLOUDY    50  39  66 N5        30.28S
ELLSWORTH AFB  CLOUDY    55  42  60 NW14      30.23S
PHILIP         CLOUDY    53  46  77 W6        30.21S
PINE RIDGE     CLOUDY    52  48  86 NE3       30.25R
WINNER         FAIR      56  49  77 NW7       30.18S
$$

SDZ004>011-016>023-039-040-251100-
NORTHEAST SOUTH DAKOTA

CITY           SKY/WX    TMP DP  RH WIND       PRES   REMARKS
ABERDEEN       CLEAR     55  48  77 W12       30.09S
WATERTOWN      CLEAR     59  50  72 NW13      30.09R
BROOKINGS      PTCLDY    54  52  93 CALM      30.10R
SISSETON         N/A     58  49  72 W12       30.03S
$$

SDZ017-020-022-023-036>040-048>070-251100-
SOUTHEAST SOUTH DAKOTA

CITY           SKY/WX    TMP DP  RH WIND       PRES   REMARKS
SIOUX FALLS    CLOUDY    60  55  83 NW6       30.09S
HURON          CLEAR     52  48  86 NW6       30.11S
CHAMBERLAIN    PTCLDY    59  51  73 NW9       30.16R
MITCHELL       CLEAR     55  51  86 N5        30.12S
YANKTON        MOCLDY    57  52  82 NW6       30.09S
$$

ABBREVIATIONS USED IN REMARKS
   TC - TEMPERATURE IN CELSIUS
  WCI - WIND CHILL INDEX
   HX - HEAT INDEX
  VSB - VISIBILITY





USA.gov is the U.S. government's official web portal to all federal, state and local government web resources and services.